[[{"header":{"parameterUnit":"m.s-1","parameterCategory":1,"la1":30.2991,"la2":30.254,"lo1":-89.0895,"lo2":-89.0444,"dy":0.0017,"dx":0.0017,"nx":28,"ny":28,"refTime":"2023-09-07T09:00:00:Z","depth":0,"parameterNumber":2,"parameterNumberName":"U-component_of_WINDS"},"data":[0,0,0,0,0,0,0,0,0,0,0,0,0,0,0,0,0,0,0,0,0,0,0,0,0,0,0,0,0,0,0,0,0,0,0,0,0,0,0,0,0,0,0,0,0,0,0,0,0,0,0,0,0,0,0,0,0,0,1.6906,1.6905,0,1.6857,1.6856,1.6856,1.6754,1.6752,1.675,1.6748,1.6698,1.6698,1.6699,0,0,0,0,0,0,0,0,0,0,0,0,0,1.6914,1.6915,1.6906,1.6905,1.6905,1.6857,1.6856,1.6856,1.6755,1.6752,1.675,1.6747,1.6698,1.6698,1.6699,0,0,0,0,0,0,0,0,0,0,0,0,0,1.6893,1.6915,1.6906,1.6849,1.6843,1.6857,1.6856,1.6856,1.6755,1.6752,1.6749,1.6746,1.6697,1.6698,1.6699,1.6765,0,0,1.6702,1.6702,0,0,0,0,0,0,0,0,1.6894,1.6893,1.6858,1.6853,1.6846,1.6809,1.6841,1.6825,1.6756,1.6788,1.6748,1.6745,1.6737,1.6735,1.6732,1.6763,1.6761,1.6702,1.6702,1.6703,1.6703,0,0,0,0,0,0,0,1.6896,1.6894,1.6887,1.6857,1.685,1.6826,1.682,1.6837,1.6781,1.6785,1.6778,1.6773,1.6733,1.6731,1.673,1.676,1.6702,1.6702,1.6703,1.6703,1.6846,1.6849,0,0,0,0,0,0,1.6905,1.6896,1.6888,1.6885,1.6863,1.6828,1.6821,1.6824,1.678,1.677,1.6776,1.6769,1.6732,1.6729,1.6728,1.6804,1.6703,1.6703,1.6704,1.6843,1.6847,1.685,0,0,0,0,0,0,1.6906,1.6906,1.689,1.6889,1.6885,1.6831,1.6835,1.6824,1.6822,1.6773,1.6763,1.6784,1.6729,1.6727,1.6757,1.6801,1.6704,1.6704,1.6839,1.6844,1.6849,1.6956,0,0,0,0,0,0,1.6907,1.6907,1.693,1.689,1.6885,1.692,1.6838,1.6826,1.6824,1.6814,1.6778,1.6769,1.6726,1.6757,1.6758,1.68,1.6705,1.6835,1.6841,1.6847,1.6948,1.6964,1.6978,0,0,0,0,0,1.6907,1.6962,1.6932,1.6931,1.6914,1.6923,1.692,1.687,1.6828,1.6852,1.6821,1.677,1.6796,1.6761,1.6762,1.6804,1.6832,1.6839,1.6847,1.6942,1.6961,1.6977,0,0,0,0,0,0,1.7007,1.6955,1.6921,1.6964,1.6949,1.6905,1.6934,1.6891,1.6887,1.6878,1.6816,1.6809,1.6849,1.6829,1.6791,1.6868,1.6806,1.6814,1.6878,1.6896,1.6911,1.6914,1.6706,0,0,0,0,0,1.7035,1.7046,1.7,1.7042,1.7036,1.6987,1.6989,1.6952,1.6933,1.6926,1.6897,1.6881,1.6886,1.689,1.6892,1.6946,1.6938,1.6976,1.6991,1.7003,1.701,1.704,1.7057,1.6875,1.6875,1.6875,0,0,1.709,1.7063,1.7074,1.7062,1.7045,1.7059,1.6982,1.6999,1.7009,1.6928,1.6956,1.6935,1.6913,1.6957,1.6975,1.6942,1.706,1.7013,1.7023,1.7023,1.705,1.7067,1.7082,1.688,1.6879,1.6878,0,0,1.7199,1.718,1.7214,1.72,1.7177,1.7144,1.7153,1.7117,1.71,1.7127,1.7068,1.7079,1.7088,1.7076,1.7071,1.7181,1.7135,1.7183,1.7259,1.7288,1.7303,1.7315,1.7355,1.737,1.7191,1.7191,1.7191,0,1.7271,1.7289,1.7236,1.7259,1.7256,1.7185,1.722,1.7209,1.7188,1.7188,1.7153,1.7165,1.7145,1.7186,1.7214,1.7212,1.722,1.7186,1.7305,1.7317,1.7328,1.7365,1.7381,1.7197,1.7196,1.7196,1.7195,0,1.738,1.7394,1.7424,1.7407,1.7408,1.7436,1.7389,1.7397,1.7361,1.7333,1.7363,1.7338,1.7335,1.7342,1.7306,1.7379,1.736,1.7316,1.7252,1.7352,1.7386,1.74,1.7206,1.7204,1.7202,1.72,0,0,1.7547,1.7503,1.7515,1.7507,1.7479,1.7489,1.7516,1.7513,1.7521,1.751,1.7532,1.7543,1.7504,1.7498,1.7462,1.7488,1.7579,1.7441,1.7439,1.7468,1.7659,1.7692,1.7709,1.7549,1.7551,1.7553,1.7661,0,1.7649,1.7691,1.7646,1.7698,1.7712,1.7648,1.7671,1.7657,1.7633,1.7642,1.7615,1.7624,1.757,1.7567,1.759,1.7563,1.7616,1.7554,1.7569,1.757,1.7575,1.7727,1.7761,1.7863,1.7674,1.7676,1.7677,0,1.7772,1.7769,1.7823,1.7794,1.7798,1.7819,1.7815,1.7824,1.7808,1.7789,1.7785,1.7742,1.7768,1.7708,1.7743,1.7703,1.7707,1.7694,1.7697,1.7696,1.7629,1.773,1.7894,1.791,1.7698,1.7696,1.7695,0,1.789,1.7898,1.7932,1.7928,1.7894,1.7912,1.7899,1.788,1.7882,1.7879,1.788,1.788,1.788,1.7882,1.7841,1.7801,1.7883,1.7818,1.7868,1.7869,1.7887,1.7886,1.8055,1.789,1.789,1.789,1.789,0,1.8008,1.8043,1.7985,1.8006,1.8045,1.7994,1.8035,1.8015,1.8,1.8017,1.7961,1.7979,1.7923,1.7936,1.7904,1.7939,1.794,1.7925,1.7916,1.793,1.7932,1.7931,1.7923,1.7894,1.7893,1.7892,1.7892,0,1.8144,1.8106,1.8139,1.8107,1.8099,1.813,1.8102,1.8121,1.8095,1.8117,1.8119,1.8078,1.809,1.805,1.8054,1.8033,1.8086,1.8065,1.8091,1.8085,1.8137,1.8133,1.831,1.8332,1.8154,1.8156,1.8158,0,1.8221,1.8248,1.8219,1.8227,1.8217,1.823,1.8233,1.8186,1.8191,1.8177,1.8198,1.8206,1.8209,1.8231,1.8202,1.8206,1.8185,1.8248,1.8185,1.8199,1.8187,1.8186,1.8189,1.826,1.8262,1.8264,1.8265,0,1.8363,1.8344,1.835,1.8352,1.8357,1.8356,1.835,1.836,1.8309,1.8319,1.8331,1.8334,1.834,1.8349,1.8348,1.8335,1.8293,1.8286,1.8297,1.8311,1.8326,1.8319,1.8126,1.8281,1.828,1.8278,1.8278,1.8277,1.8473,1.8494,1.8478,1.8488,1.8479,1.8477,1.8493,1.8471,1.848,1.8481,1.8453,1.8472,1.8458,1.8452,1.8445,1.8459,1.8431,1.8447,1.8452,1.8457,1.8466,1.8324,1.8459,1.8458,1.8458,1.8458,1.8457,0,1.8612,1.86,1.8609,1.8604,1.8613,1.8574,1.8567,1.8577,1.8594,1.8585,1.859,1.8606,1.8615,1.8588,1.8594,1.8611,1.8592,1.8614,1.8612,1.861,1.8491,1.848,1.8629,1.8629,1.8629,1.8629,1.8629,1.8629,1.8686,1.872,1.87,1.8731,1.8718,1.8736,1.8736,1.8734,1.8727,1.8747,1.8755,1.8738,1.8722,1.8727,1.8735,1.8727,1.8731,1.8761,1.8746,1.8635,1.8618,1.8602,1.8592,1.8762,1.8762,1.8864,1.8865,1.8866]},{"header":{"parameterUnit":"m.s-1","parameterCategory":1,"la1":30.2991,"la2":30.254,"lo1":-89.0895,"lo2":-89.0444,"dy":0.0017,"dx":0.0017,"nx":28,"ny":28,"refTime":"2023-09-07T09:00:00:Z","depth":0,"parameterNumber":3,"parameterNumberName":"V-component_of_WINDS"},"data":[0,0,0,0,0,0,0,0,0,0,0,0,0,0,0,0,0,0,0,0,0,0,0,0,0,0,0,0,0,0,0,0,0,0,0,0,0,0,0,0,0,0,0,0,0,0,0,0,0,0,0,0,0,0,0,0,0,0,-1.3265,-1.3265,0,-1.3266,-1.3266,-1.3266,-1.3261,-1.3261,-1.3261,-1.3261,-1.3259,-1.3259,-1.3259,0,0,0,0,0,0,0,0,0,0,0,0,0,-1.3255,-1.3255,-1.3265,-1.3265,-1.3265,-1.3266,-1.3266,-1.3266,-1.3261,-1.3261,-1.3261,-1.3261,-1.3259,-1.3259,-1.3259,0,0,0,0,0,0,0,0,0,0,0,0,0,-1.3258,-1.3255,-1.3265,-1.3262,-1.3262,-1.3266,-1.3266,-1.3266,-1.3261,-1.3261,-1.3261,-1.3261,-1.3259,-1.3259,-1.3259,-1.3264,0,0,-1.326,-1.326,0,0,0,0,0,0,0,0,-1.3258,-1.3259,-1.3263,-1.3263,-1.3262,-1.3264,-1.3262,-1.3266,-1.3261,-1.3262,-1.3261,-1.3261,-1.326,-1.326,-1.3261,-1.3264,-1.3264,-1.326,-1.326,-1.326,-1.326,0,0,0,0,0,0,0,-1.3258,-1.3258,-1.3265,-1.3263,-1.3263,-1.3261,-1.3261,-1.3263,-1.3262,-1.3262,-1.3261,-1.3262,-1.326,-1.3261,-1.3261,-1.3264,-1.326,-1.326,-1.326,-1.326,-1.3274,-1.3274,0,0,0,0,0,0,-1.3258,-1.3258,-1.3265,-1.3265,-1.326,-1.3261,-1.3261,-1.3263,-1.3262,-1.3262,-1.3262,-1.3261,-1.3261,-1.3261,-1.3261,-1.3268,-1.326,-1.326,-1.326,-1.3273,-1.3274,-1.3274,0,0,0,0,0,0,-1.3258,-1.3259,-1.3265,-1.3262,-1.3262,-1.3262,-1.3264,-1.3263,-1.3264,-1.3262,-1.3262,-1.3263,-1.3261,-1.3261,-1.3264,-1.3268,-1.326,-1.326,-1.3273,-1.3274,-1.3274,-1.3282,0,0,0,0,0,0,-1.3258,-1.3259,-1.3261,-1.3262,-1.3263,-1.3269,-1.3264,-1.3264,-1.3265,-1.3264,-1.3263,-1.3263,-1.3261,-1.3264,-1.3264,-1.3268,-1.326,-1.3273,-1.3273,-1.3274,-1.3281,-1.3283,-1.3284,0,0,0,0,0,-1.3258,-1.3262,-1.3261,-1.3262,-1.3265,-1.3269,-1.3269,-1.3268,-1.3265,-1.3267,-1.3267,-1.3263,-1.3268,-1.3265,-1.3265,-1.3269,-1.3272,-1.3273,-1.3274,-1.3281,-1.3283,-1.3284,0,0,0,0,0,0,-1.326,-1.3262,-1.3261,-1.3266,-1.3268,-1.3268,-1.3271,-1.3269,-1.327,-1.327,-1.3267,-1.3266,-1.3271,-1.327,-1.3266,-1.3275,-1.327,-1.327,-1.3275,-1.3276,-1.3278,-1.3278,-1.326,0,0,0,0,0,-1.3261,-1.3265,-1.3266,-1.327,-1.3271,-1.3271,-1.3272,-1.3272,-1.3273,-1.3273,-1.3272,-1.3272,-1.3274,-1.3275,-1.3277,-1.3282,-1.3282,-1.3285,-1.3286,-1.3287,-1.3287,-1.3292,-1.3293,-1.3276,-1.3276,-1.3276,0,0,-1.3263,-1.3265,-1.3267,-1.3271,-1.3272,-1.3276,-1.3271,-1.3275,-1.3277,-1.3273,-1.3277,-1.3277,-1.3277,-1.3282,-1.3284,-1.3281,-1.3292,-1.3288,-1.3288,-1.3288,-1.3292,-1.3294,-1.3295,-1.3277,-1.3277,-1.3277,0,0,-1.3269,-1.3271,-1.3275,-1.3277,-1.328,-1.328,-1.3281,-1.3283,-1.3283,-1.3288,-1.3285,-1.3288,-1.329,-1.3291,-1.3292,-1.3302,-1.3299,-1.3302,-1.3308,-1.3312,-1.3314,-1.3315,-1.3319,-1.3321,-1.3303,-1.3303,-1.3303,0,-1.3271,-1.3277,-1.3277,-1.3282,-1.3284,-1.3283,-1.3287,-1.3289,-1.3291,-1.3292,-1.329,-1.3295,-1.3295,-1.3301,-1.3304,-1.3304,-1.3306,-1.3302,-1.3314,-1.3315,-1.3316,-1.332,-1.3321,-1.3303,-1.3303,-1.3303,-1.3303,0,-1.328,-1.3285,-1.3288,-1.3293,-1.3295,-1.33,-1.3301,-1.3303,-1.3303,-1.3303,-1.3308,-1.3309,-1.3311,-1.3313,-1.3311,-1.3319,-1.3317,-1.3314,-1.3309,-1.3318,-1.3322,-1.3323,-1.3304,-1.3304,-1.3303,-1.3303,0,0,-1.3285,-1.3293,-1.3294,-1.3297,-1.3301,-1.3304,-1.3309,-1.3313,-1.3316,-1.3318,-1.3322,-1.3326,-1.3325,-1.3325,-1.3324,-1.3328,-1.3337,-1.3325,-1.3325,-1.3328,-1.3347,-1.335,-1.3352,-1.3336,-1.3336,-1.3336,-1.3348,0,-1.3292,-1.3302,-1.3304,-1.3312,-1.3317,-1.3317,-1.3321,-1.3324,-1.3326,-1.3329,-1.333,-1.3334,-1.333,-1.3331,-1.3335,-1.3335,-1.3341,-1.3334,-1.3339,-1.334,-1.334,-1.3354,-1.3356,-1.3366,-1.3349,-1.3349,-1.335,0,-1.3301,-1.3306,-1.3315,-1.3321,-1.3323,-1.3327,-1.3333,-1.3336,-1.334,-1.3341,-1.3344,-1.3343,-1.3348,-1.3343,-1.3351,-1.3347,-1.3349,-1.335,-1.335,-1.335,-1.3345,-1.3355,-1.337,-1.3371,-1.3352,-1.3351,-1.3351,0,-1.3305,-1.3314,-1.3321,-1.3324,-1.333,-1.3334,-1.3336,-1.334,-1.3343,-1.3348,-1.335,-1.3354,-1.3356,-1.3359,-1.336,-1.3356,-1.3368,-1.3363,-1.3369,-1.3369,-1.3371,-1.3371,-1.3387,-1.3372,-1.3372,-1.3372,-1.3372,0,-1.3312,-1.3318,-1.3324,-1.3328,-1.3336,-1.3338,-1.3345,-1.3347,-1.3351,-1.3356,-1.3355,-1.336,-1.336,-1.3365,-1.3365,-1.3372,-1.3373,-1.3374,-1.3374,-1.3374,-1.3374,-1.3375,-1.3374,-1.3372,-1.3372,-1.3372,-1.3372,0,-1.3317,-1.3321,-1.333,-1.3336,-1.3338,-1.3343,-1.3349,-1.3353,-1.3356,-1.3362,-1.3364,-1.3367,-1.3373,-1.3374,-1.338,-1.338,-1.3389,-1.3388,-1.3388,-1.3388,-1.3394,-1.3394,-1.3412,-1.3415,-1.3398,-1.3398,-1.3398,0,-1.3322,-1.3327,-1.3335,-1.3339,-1.3343,-1.3349,-1.3353,-1.3356,-1.336,-1.3367,-1.3371,-1.3377,-1.3382,-1.3391,-1.3394,-1.3399,-1.3398,-1.3405,-1.3399,-1.34,-1.3399,-1.3399,-1.34,-1.3405,-1.3405,-1.3406,-1.3406,0,-1.3329,-1.3332,-1.3338,-1.3346,-1.3352,-1.3358,-1.3363,-1.3367,-1.337,-1.3375,-1.3382,-1.3387,-1.3395,-1.3401,-1.3407,-1.3409,-1.3408,-1.3408,-1.341,-1.341,-1.341,-1.3411,-1.3392,-1.3407,-1.3407,-1.3407,-1.3407,-1.3407,-1.3334,-1.334,-1.3347,-1.3355,-1.3361,-1.3367,-1.3372,-1.3376,-1.3383,-1.339,-1.3392,-1.34,-1.3405,-1.3413,-1.3416,-1.3422,-1.342,-1.3422,-1.3423,-1.3424,-1.3425,-1.3409,-1.3423,-1.3423,-1.3423,-1.3423,-1.3423,0,-1.3343,-1.3348,-1.3356,-1.3365,-1.3372,-1.3372,-1.3379,-1.3385,-1.3392,-1.3398,-1.3404,-1.3413,-1.342,-1.3424,-1.3431,-1.3436,-1.3435,-1.3437,-1.3437,-1.3438,-1.3426,-1.3424,-1.3438,-1.3438,-1.3438,-1.3437,-1.3437,-1.3437,-1.3348,-1.3357,-1.3361,-1.3374,-1.3379,-1.3388,-1.3393,-1.3399,-1.3404,-1.3414,-1.3421,-1.3424,-1.343,-1.3438,-1.3445,-1.3446,-1.3448,-1.3451,-1.3451,-1.344,-1.3438,-1.3437,-1.3435,-1.3451,-1.3451,-1.3463,-1.3463,-1.3463]}]]